Location: Niverville
(49.6028°N, 97.0419°W)
Time: 21:25:13
(UTC-05:00)

Amateur Radio Satellites - All Passes

Search period start: 27 March 2017 20:55
Search period end: 28 March 2017 20:55
Location: Niverville, 49.6028°N, 97.0419°W

Satellite Date Start Highest point End Downlink Frequencies (MHz)
Time Altitude Azimuth
ISS 27 Mar 21:00:19 21:02:19 15° 138° (SE) 21:04:20 437.550
SO-50 27 Mar 21:01:21 21:03:56 15° 15° (NNE) 21:06:30 436.795
STRAND 1 27 Mar 21:08:27 21:13:37 82° 104° (ESE) 21:18:43 437.568
XW-2A 27 Mar 21:09:01 21:10:41 13° 270° (W) 21:12:21 145.665 - 145.685
AO-73 27 Mar 21:13:18 21:17:49 76° 73° (ENE) 21:22:15 145.935
HO-68 27 Mar 21:18:39 21:24:51 31° 266° (W) 21:31:06 435.675
YUBILEINY 27 Mar 21:21:23 21:28:25 29° 280° (W) 21:35:28 435.215
DELFI C3 27 Mar 21:28:14 21:31:41 30° 67° (ENE) 21:35:09 145.870
AO-85 27 Mar 21:36:05 21:40:12 43° 123° (ESE) 21:44:07 145.980
UWE-3 27 Mar 21:44:37 21:48:49 33° 265° (W) 21:53:00 435.000/436.395/437.385
AAUSAT CUBESAT 2 27 Mar 21:56:41 21:59:44 20° 268° (W) 22:02:49 437.432
M-CUBED/EXP-1 PRIME 27 Mar 22:02:42 22:05:33 16° 309° (NW) 22:08:25 437.505
RS-15 27 Mar 22:11:38 22:24:03 84° 234° (SW) 22:35:56 29.354- 29.394
Oscar 11 27 Mar 22:12:35 22:16:30 33° 264° (W) 22:20:26 .
ZACube-1 27 Mar 22:23:04 22:26:41 23° 268° (W) 22:30:16 437.345
CUBEBUG 2 27 Mar 22:24:48 22:26:04 11° 275° (W) 22:27:20 437.445
TIGRISAT 27 Mar 22:26:36 22:28:41 13° 87° (E) 22:30:46 435.000
Tancredo 1 27 Mar 22:28:56 22:32:05 66° 157° (SSE) 22:35:15 437.200
FO-29 27 Mar 22:30:24 22:32:50 13° 81° (E) 22:35:11 435.910
ISS 27 Mar 22:35:05 22:38:19 67° 157° (SSE) 22:41:36 437.550
UNISAT 6 27 Mar 22:36:30 22:39:30 18° 90° (E) 22:42:27 437.425
LO-87 27 Mar 22:38:22 22:41:14 22° 65° (ENE) 22:44:07 145.935 - 145.965
SO-50 27 Mar 22:41:24 22:45:38 37° 39° (NE) 22:49:50 436.795
STRAND 1 27 Mar 22:48:46 22:52:11 18° 304° (NW) 22:55:35 437.568
AO-73 27 Mar 22:52:10 22:54:33 14° 272° (W) 22:56:56 145.935
PRISM 27 Mar 22:57:31 23:01:35 48° 100° (E) 23:05:37 437.425
DELFI C3 27 Mar 23:03:06 23:06:29 27° 265° (W) 23:09:52 145.870
ESTCUBE 1 27 Mar 23:08:00 23:11:55 31° 65° (ENE) 23:15:51 437.505/2401.250
BEESAT 3 27 Mar 23:08:13 23:11:56 41° 121° (ESE) 23:15:43 437.485
SPROUT 27 Mar 23:14:23 23:15:55 12° 55° (NE) 23:17:27 437.525
AO-85 27 Mar 23:16:55 23:20:43 31° 321° (NW) 23:24:21 145.980
BEESAT 2 27 Mar 23:27:24 23:30:48 28° 118° (ESE) 23:34:15 435.950
DX 1 27 Mar 23:48:34 23:50:44 14° 56° (NE) 23:52:55 434.975-435.025
TIGRISAT 28 Mar 00:01:33 00:06:00 78° 286° (WNW) 00:10:19 435.000
Tancredo 1 28 Mar 00:05:08 00:08:17 58° 356° (N) 00:11:26 437.200
LO-87 28 Mar 00:11:17 00:14:32 32° 263° (W) 00:17:51 145.935 - 145.965
ISS 28 Mar 00:11:38 00:14:53 59° 356° (N) 00:18:09 437.550
UNISAT 6 28 Mar 00:12:14 00:16:37 57° 289° (WNW) 00:20:53 437.425
FO-29 28 Mar 00:13:05 00:19:16 76° 103° (ESE) 00:24:45 435.910
VELOX 1 28 Mar 00:13:50 00:18:02 44° 68° (ENE) 00:22:17 145.980
NANOSAT C BR1 28 Mar 00:19:18 00:21:59 16° 90° (E) 00:24:39 145.865
SO-50 28 Mar 00:21:55 00:26:09 40° 239° (WSW) 00:30:20 436.795
UKube-1 28 Mar 00:24:26 00:27:37 21° 61° (ENE) 00:30:50 .
EO-79 28 Mar 00:24:30 00:27:38 20° 92° (E) 00:30:44 145.935-145.965
RS-15 28 Mar 00:25:17 00:34:47 28° 259° (W) 00:44:01 29.354- 29.394
PRISM 28 Mar 00:33:27 00:36:35 21° 298° (WNW) 00:39:42 437.425
AIST 2D 28 Mar 00:42:35 00:46:00 49° 100° (E) 00:49:22 435.315
ESTCUBE 1 28 Mar 00:44:35 00:48:40 34° 264° (W) 00:52:47 437.505/2401.250
BEESAT 3 28 Mar 00:46:05 00:49:38 31° 321° (NW) 00:53:15 437.485
SPROUT 28 Mar 00:46:47 00:51:06 79° 73° (ENE) 00:55:25 437.525
POLYITAN 1 28 Mar 00:52:33 00:56:30 36° 97° (E) 01:00:24 437.675
QB50P2 28 Mar 00:57:11 01:01:16 43° 99° (E) 01:05:18 145.880/145.840
50 SAT 28 Mar 00:59:15 01:02:42 81° 75° (ENE) 01:06:11 437.505
AO-85 28 Mar 01:01:00 01:02:19 11° 344° (NNW) 01:03:38 145.980
BEESAT 2 28 Mar 01:04:38 01:08:26 42° 317° (NW) 01:12:18 435.950
DUCHIFAT 1 28 Mar 01:07:02 01:11:04 42° 98° (E) 01:15:04 145.980
BUGSAT 1 28 Mar 01:17:34 01:20:45 21° 92° (E) 01:23:52 437.445
O/OREOS (USA 219) 28 Mar 01:18:23 01:21:15 16° 41° (NE) 01:24:06 437.305
DX 1 28 Mar 01:21:55 01:26:17 89° 273° (W) 01:30:41 434.975-435.025
TIGRISAT 28 Mar 01:40:16 01:41:54 12° 306° (NW) 01:43:31 435.000
Tancredo 1 28 Mar 01:41:23 01:44:35 83° 16° (NNE) 01:47:48 437.200
ISS 28 Mar 01:48:14 01:51:32 83° 20° (NNE) 01:54:51 437.550
VELOX 1 28 Mar 01:51:10 01:54:41 23° 267° (W) 01:58:16 145.980
NANOSAT C BR1 28 Mar 01:53:55 01:58:06 59° 288° (WNW) 02:02:14 145.865
FO-29 28 Mar 01:59:01 02:03:38 22° 307° (NW) 02:07:54 435.910
UKube-1 28 Mar 01:59:06 02:03:19 53° 259° (W) 02:07:34 .
EO-79 28 Mar 01:59:34 02:03:40 48° 290° (WNW) 02:07:43 145.935-145.965
Oscar 19 28 Mar 02:15:50 02:20:16 28° 94° (E) 02:24:42 437.125/150
AIST 2D 28 Mar 02:16:50 02:18:52 15° 298° (WNW) 02:20:53 435.315
SPROUT 28 Mar 02:25:37 02:27:34 13° 273° (W) 02:29:31 437.525
BEESAT 3 28 Mar 02:27:04 02:28:27 11° 344° (NNW) 02:29:51 437.485
POLYITAN 1 28 Mar 02:28:36 02:32:10 27° 296° (WNW) 02:35:42 437.675
QB50P2 28 Mar 02:33:27 02:36:49 23° 297° (WNW) 02:40:10 145.880/145.840
BEESAT 28 Mar 02:39:48 02:44:13 39° 66° (ENE) 02:48:40 436.000
Gurwin Techsat 1B 28 Mar 02:42:38 02:47:15 29° 94° (E) 02:51:49 435.225
DUCHIFAT 1 28 Mar 02:43:10 02:46:31 23° 297° (WNW) 02:49:51 145.980
MOZHAYETS 4 28 Mar 02:44:06 02:47:23 20° 60° (ENE) 02:50:40
BEESAT 2 28 Mar 02:45:14 02:47:15 13° 340° (NNW) 02:49:16 435.950
BUGSAT 1 28 Mar 02:52:19 02:56:21 45° 291° (WNW) 03:00:18 437.445
O/OREOS (USA 219) 28 Mar 02:56:47 03:01:26 81° 63° (ENE) 03:06:03 437.305
ITUPSAT 1 28 Mar 02:56:50 03:01:29 54° 70° (ENE) 03:06:10 437.325
DX 1 28 Mar 03:01:50 03:03:08 11° 273° (W) 03:04:26 434.975-435.025
Tancredo 1 28 Mar 03:17:44 03:20:29 26° 215° (SW) 03:23:14 437.200
ISS 28 Mar 03:24:56 03:27:47 27° 215° (SW) 03:30:37 437.550
CUBESAT XI-V 28 Mar 03:41:36 03:44:01 14° 56° (NE) 03:46:27 437.345
KKS-1 28 Mar 03:50:11 03:53:33 21° 60° (ENE) 03:56:55 437.445
Oscar 19 28 Mar 03:54:51 03:59:48 47° 293° (WNW) 04:04:44 437.125/150
ITAMSAT 1 28 Mar 04:06:17 04:10:45 28° 94° (E) 04:15:11 435.822/435.867
BEESAT 28 Mar 04:17:53 04:22:05 30° 265° (W) 04:26:18 436.000
MOZHAYETS 4 28 Mar 04:19:36 04:24:08 62° 259° (W) 04:28:42
STARS 28 Mar 04:21:50 04:25:05 20° 60° (ENE) 04:28:21 437.465
Gurwin Techsat 1B 28 Mar 04:22:18 04:27:24 48° 293° (WNW) 04:32:29 435.225
AO-85 28 Mar 04:23:06 04:26:21 24° 35° (NE) 04:29:37 145.980
ITUPSAT 1 28 Mar 04:35:56 04:39:38 22° 268° (W) 04:43:22 437.325
O/OREOS (USA 219) 28 Mar 04:37:48 04:40:12 14° 262° (W) 04:42:34 437.305
AO-7 28 Mar 04:45:47 04:53:45 48° 100° (E) 05:01:40 .
CUBESAT XI-V 28 Mar 05:16:08 05:20:43 89° 142° (SE) 05:25:22 437.345
KKS-1 28 Mar 05:25:22 05:29:45 55° 259° (W) 05:34:12 437.445
M-CUBED/EXP-1 PRIME 28 Mar 05:43:27 05:46:49 28° 58° (ENE) 05:50:25 437.505
BEESAT 3 28 Mar 05:43:47 05:46:56 21° 32° (NNE) 05:50:04 437.485
ITAMSAT 1 28 Mar 05:45:27 05:50:26 47° 293° (WNW) 05:55:23 435.822/435.867
STARS 28 Mar 05:56:42 06:01:04 57° 259° (WSW) 06:05:28 437.465
AO-85 28 Mar 06:03:10 06:07:02 58° 235° (SW) 06:10:57 145.980
BEESAT 2 28 Mar 06:03:20 06:06:09 18° 28° (NNE) 06:08:58 435.950
DOVE 4 28 Mar 06:11:05 06:14:14 16° 86° (E) 06:17:22 437.250
YUBILEINY 28 Mar 06:37:45 06:42:56 18° 72° (ENE) 06:48:06 435.215
AO-7 28 Mar 06:38:43 06:46:36 50° 302° (WNW) 06:54:28 .
XW-2F 28 Mar 06:48:42 06:51:11 17° 91° (E) 06:53:39 145.980 - 146.000
STRAND 1 28 Mar 06:50:29 06:54:54 30° 62° (ENE) 06:59:20 437.568
LilacSat-2 28 Mar 06:53:02 06:55:54 20° 93° (E) 06:58:43 437.200
CUBESAT XI-V 28 Mar 06:56:59 06:58:48 12° 274° (W) 07:00:36 437.345
NUDT-PHONESAT 28 Mar 07:08:30 07:11:27 22° 94° (E) 07:14:23 437.300
XW-2D 28 Mar 07:15:06 07:18:33 33° 97° (E) 07:21:58 145.860 - 145.880
M-CUBED/EXP-1 PRIME 28 Mar 07:17:42 07:21:10 33° 258° (WSW) 07:24:57 437.505
KAITUO 1B 28 Mar 07:17:51 07:21:07 28° 96° (E) 07:24:21 145.475/437.950
BEESAT 3 28 Mar 07:20:58 07:25:00 79° 233° (SW) 07:29:01 437.485
XW-2B 28 Mar 07:21:03 07:24:34 37° 97° (E) 07:28:04 145.730 - 145.750
XW-2C 28 Mar 07:31:14 07:34:54 49° 100° (E) 07:38:32 145.795 - 145.815
NO-84 28 Mar 07:31:21 07:33:53 28° 140° (SE) 07:36:24 435.350 FM
BEESAT 2 28 Mar 07:40:32 07:44:37 73° 50° (NE) 07:48:40 435.950
DOVE 4 28 Mar 07:47:15 07:52:37 87° 282° (WNW) 07:57:52 437.250
CUTE-I 28 Mar 07:47:32 07:52:52 61° 102° (ESE) 07:58:08 437.470
SEEDS 28 Mar 08:19:35 08:22:20 17° 90° (E) 08:25:04 437.485
XW-2F 28 Mar 08:22:00 08:25:34 44° 290° (WNW) 08:29:08 145.980 - 146.000
XW-2A 28 Mar 08:24:50 08:27:50 28° 96° (E) 08:30:48 145.665 - 145.685
LilacSat-2 28 Mar 08:26:48 08:30:19 37° 290° (WNW) 08:33:48 437.200
STRAND 1 28 Mar 08:28:57 08:33:54 46° 261° (W) 08:38:52 437.568
CUTE 1.7 + AOD 2 28 Mar 08:29:18 08:33:02 30° 95° (E) 08:36:46 437.475
YUBILEINY 28 Mar 08:29:28 08:38:09 73° 95° (E) 08:46:51 435.215
CUBEBUG 2 28 Mar 08:31:42 08:34:31 17° 88° (E) 08:37:17 437.445
AO-7 28 Mar 08:32:45 08:37:32 17° 325° (NW) 08:42:19 .
HO-68 28 Mar 08:40:01 08:46:50 44° 98° (E) 08:53:38 435.675
NUDT-PHONESAT 28 Mar 08:42:08 08:45:27 32° 292° (WNW) 08:48:44 437.300
FO-29 28 Mar 08:46:46 08:51:06 17° 48° (NE) 08:55:14 435.910
XW-2D 28 Mar 08:49:37 08:52:36 23° 295° (WNW) 08:55:35 145.860 - 145.880
KAITUO 1B 28 Mar 08:51:58 08:55:05 26° 294° (WNW) 08:58:10 145.475/437.950
XW-2B 28 Mar 08:55:43 08:58:34 21° 296° (WNW) 09:01:25 145.730 - 145.750
AO-73 28 Mar 09:00:04 09:00:26 10° 85° (E) 09:00:47 145.935
BEESAT 3 28 Mar 09:01:12 09:01:53 10° 251° (WSW) 09:02:33 437.485
XW-2C 28 Mar 09:06:19 09:08:46 17° 298° (WNW) 09:11:11 145.795 - 145.815
NO-84 28 Mar 09:08:32 09:11:18 46° 339° (NNW) 09:14:07 435.350 FM
BEESAT 2 28 Mar 09:19:26 09:21:53 16° 248° (WSW) 09:24:21 435.950
DOVE 4 28 Mar 09:26:12 09:29:33 17° 304° (NW) 09:32:53 437.250
CUTE-I 28 Mar 09:28:14 09:32:32 25° 301° (WNW) 09:36:48 437.470
TIGRISAT 28 Mar 09:28:31 09:32:06 22° 62° (ENE) 09:35:39 435.000
UWE-3 28 Mar 09:29:34 09:33:36 37° 96° (E) 09:37:30 435.000/436.395/437.385
AAUSAT CUBESAT 2 28 Mar 09:32:56 09:36:57 46° 99° (E) 09:40:57 437.432
UNISAT 6 28 Mar 09:38:47 09:42:46 28° 64° (ENE) 09:46:43 437.425
PRISM 28 Mar 09:50:38 09:54:38 61° 72° (ENE) 09:58:43 437.425
SEEDS 28 Mar 09:54:16 09:58:22 56° 288° (WNW) 10:02:29 437.485
Oscar 11 28 Mar 09:54:58 09:58:52 32° 96° (E) 10:02:44 .
XW-2A 28 Mar 09:57:49 10:00:29 22° 294° (WNW) 10:03:07 145.665 - 145.685
CUTE 1.7 + AOD 2 28 Mar 10:05:08 10:08:52 31° 293° (WNW) 10:12:36 437.475
ZACube-1 28 Mar 10:05:54 10:10:03 51° 99° (E) 10:14:07 437.345
CUBEBUG 2 28 Mar 10:07:12 10:11:36 61° 288° (WNW) 10:15:50 437.445
PCSat 28 Mar 10:18:51 10:24:06 54° 118° (ESE) 10:29:24 145.827
FO-29 28 Mar 10:27:23 10:34:56 60° 68° (ENE) 10:41:53 435.910
HO-68 28 Mar 10:27:52 10:34:38 47° 298° (WNW) 10:41:23 435.675
YUBILEINY 28 Mar 10:28:16 10:35:49 31° 298° (WNW) 10:43:24 435.215
AO-73 28 Mar 10:33:07 10:37:22 89° 90° (E) 10:41:32 145.935
DELFI C3 28 Mar 10:35:20 10:38:46 27° 95° (E) 10:42:11 145.870
NO-84 28 Mar 10:46:44 10:49:17 27° 1° (N) 10:51:55 435.350 FM
TIGRISAT 28 Mar 11:03:51 11:08:27 55° 260° (W) 11:13:01 435.000
UWE-3 28 Mar 11:06:17 11:09:55 27° 296° (WNW) 11:13:28 435.000/436.395/437.385
AAUSAT CUBESAT 2 28 Mar 11:09:00 11:12:09 21° 297° (WNW) 11:15:18 437.432
UNISAT 6 28 Mar 11:14:54 11:19:20 41° 263° (W) 11:23:44 437.425
NANOSAT C BR1 28 Mar 11:15:11 11:18:29 22° 63° (ENE) 11:21:49 145.865
EO-79 28 Mar 11:20:43 11:24:18 27° 64° (ENE) 11:27:55 145.935-145.965
AIST 2D 28 Mar 11:21:00 11:24:15 35° 70° (ENE) 11:27:30 435.315
PRISM 28 Mar 11:27:59 11:30:21 15° 270° (W) 11:32:44 437.425
Oscar 11 28 Mar 11:31:11 11:34:58 30° 294° (WNW) 11:38:44 .
LO-87 28 Mar 11:34:38 11:36:51 15° 91° (E) 11:39:03 145.935 - 145.965
ZACube-1 28 Mar 11:42:55 11:46:00 20° 299° (WNW) 11:49:02 437.345
POLYITAN 1 28 Mar 11:48:49 11:52:57 48° 70° (ENE) 11:57:06 437.675
QB50P2 28 Mar 11:53:28 11:57:40 57° 72° (ENE) 12:01:53 145.880/145.840
Oscar 19 28 Mar 12:01:33 12:03:27 12° 50° (NE) 12:05:21 437.125/150
DUCHIFAT 1 28 Mar 12:02:30 12:06:40 55° 71° (ENE) 12:10:51 145.980
PCSat 28 Mar 12:02:47 12:07:45 35° 319° (NW) 12:12:45 145.827
DELFI C3 28 Mar 12:10:01 12:13:35 31° 293° (WNW) 12:17:07 145.870
BUGSAT 1 28 Mar 12:11:01 12:14:35 27° 64° (ENE) 12:18:09 437.445
AO-73 28 Mar 12:11:06 12:12:57 13° 303° (WNW) 12:14:47 145.935
FO-29 28 Mar 12:13:14 12:20:12 36° 266° (W) 12:26:45 435.910
AO-7 28 Mar 12:14:24 12:15:44 10° 21° (NNE) 12:17:06 .
HO-68 28 Mar 12:17:33 12:20:41 13° 321° (NW) 12:23:50 435.675
NO-84 28 Mar 12:24:19 12:27:14 50° 22° (NNE) 12:30:20 435.350 FM
Gurwin Techsat 1B 28 Mar 12:31:30 12:34:04 14° 51° (NE) 12:36:39 435.225
ESTCUBE 1 28 Mar 12:32:07 12:36:17 35° 96° (E) 12:40:26 437.505/2401.250
RS-15 28 Mar 12:39:54 12:50:46 42° 109° (ESE) 13:01:53 29.354- 29.394
NANOSAT C BR1 28 Mar 12:49:50 12:53:57 46° 261° (W) 12:58:05 145.865
AIST 2D 28 Mar 12:55:01 12:57:36 19° 267° (W) 13:00:11 435.315
EO-79 28 Mar 12:55:57 12:59:56 37° 263° (W) 13:03:57 145.935-145.965
LO-87 28 Mar 13:07:02 13:10:35 48° 288° (WNW) 13:14:06 145.935 - 145.965
DX 1 28 Mar 13:07:42 13:09:17 12° 87° (E) 13:10:54 434.975-435.025
POLYITAN 1 28 Mar 13:25:47 13:28:59 20° 268° (W) 13:32:13 437.675
QB50P2 28 Mar 13:30:58 13:33:49 17° 270° (W) 13:36:41 145.880/145.840
VELOX 1 28 Mar 13:35:30 13:39:51 48° 100° (E) 13:44:10 145.980
Oscar 19 28 Mar 13:36:45 13:41:47 62° 71° (ENE) 13:46:52 437.125/150
DUCHIFAT 1 28 Mar 13:39:47 13:42:40 18° 269° (W) 13:45:35 145.980
UKube-1 28 Mar 13:42:21 13:45:25 19° 91° (E) 13:48:28 .
BUGSAT 1 28 Mar 13:45:51 13:49:48 37° 263° (W) 13:53:47 437.445
PCSat 28 Mar 13:49:49 13:52:48 15° 344° (NNW) 13:55:48 145.827
50 SAT 28 Mar 13:52:10 13:55:34 45° 100° (E) 13:58:58 437.505
ITAMSAT 1 28 Mar 13:52:30 13:54:53 13° 51° (NE) 13:57:15 435.822/435.867
AO-7 28 Mar 13:59:05 14:05:45 28° 47° (NE) 14:12:25 .
NO-84 28 Mar 14:01:55 14:04:42 30° 219° (SW) 14:07:39 435.350 FM
SPROUT 28 Mar 14:03:54 14:08:14 84° 106° (ESE) 14:12:30 437.525
Gurwin Techsat 1B 28 Mar 14:07:49 14:13:06 69° 71° (ENE) 14:18:24 435.225
ESTCUBE 1 28 Mar 14:09:04 14:13:01 30° 295° (WNW) 14:16:57 437.505/2401.250
SO-50 28 Mar 14:40:29 14:44:05 23° 115° (ESE) 14:47:39 436.795
DX 1 28 Mar 14:41:42 14:46:07 88° 292° (WNW) 14:50:31 434.975-435.025
RS-15 28 Mar 14:50:20 15:02:31 76° 314° (NW) 15:15:00 29.354- 29.394
VELOX 1 28 Mar 15:12:30 15:16:02 23° 298° (WNW) 15:19:33 145.980
UKube-1 28 Mar 15:17:31 15:21:46 54° 290° (WNW) 15:26:00 .
Oscar 19 28 Mar 15:17:43 15:21:33 21° 269° (W) 15:25:24 437.125/150
50 SAT 28 Mar 15:26:05 15:28:18 16° 298° (WNW) 15:30:31 437.505
ITAMSAT 1 28 Mar 15:28:14 15:33:25 67° 71° (ENE) 15:38:38 435.822/435.867
PCSat 28 Mar 15:36:02 15:38:37 13° 11° (N) 15:41:12 145.827
SPROUT 28 Mar 15:41:19 15:43:32 14° 303° (WNW) 15:45:45 437.525
AO-7 28 Mar 15:49:15 15:57:36 89° 69° (ENE) 16:05:59 .
Gurwin Techsat 1B 28 Mar 15:49:42 15:53:33 20° 270° (W) 15:57:27 435.225
MOZHAYETS 4 28 Mar 16:10:35 16:14:11 23° 92° (E) 16:17:47
BEESAT 28 Mar 16:12:41 16:17:20 49° 100° (E) 16:21:56 436.000
DX 1 28 Mar 16:19:32 16:21:39 13° 304° (NW) 16:23:46 434.975-435.025
SO-50 28 Mar 16:19:36 16:24:11 62° 314° (NW) 16:28:45 436.795
ITUPSAT 1 28 Mar 16:30:23 16:35:10 69° 103° (ESE) 16:39:54 437.325
YUBILEINY 28 Mar 16:39:24 16:42:52 13° 42° (NE) 16:46:21 435.215
RS-15 28 Mar 17:05:46 17:17:18 43° 345° (NNW) 17:28:53 29.354- 29.394
CUBESAT XI-V 28 Mar 17:09:07 17:12:10 17° 89° (E) 17:15:11 437.345
ITAMSAT 1 28 Mar 17:09:32 17:13:22 20° 269° (W) 17:17:13 435.822/435.867
KKS-1 28 Mar 17:12:23 17:15:48 21° 92° (E) 17:19:11 437.445
O/OREOS (USA 219) 28 Mar 17:13:27 17:17:41 39° 108° (ESE) 17:21:58 437.305
PCSat 28 Mar 17:19:14 17:23:55 28° 36° (NE) 17:28:34 145.827
DOVE 4 28 Mar 17:20:17 17:24:07 24° 60° (ENE) 17:28:08 437.250
HO-68 28 Mar 17:30:03 17:33:38 15° 41° (NE) 17:37:14 435.675
XW-2F 28 Mar 17:34:05 17:36:32 17° 62° (ENE) 17:38:59 145.980 - 146.000
CUTE-I 28 Mar 17:35:06 17:39:30 26° 60° (ENE) 17:43:54 437.470
LilacSat-2 28 Mar 17:39:12 17:42:02 20° 64° (ENE) 17:44:52 437.200
STARS 28 Mar 17:42:17 17:45:29 19° 91° (E) 17:48:40 437.465
AO-7 28 Mar 17:45:02 17:51:25 24° 270° (W) 17:57:51 .
MOZHAYETS 4 28 Mar 17:47:13 17:51:36 47° 291° (WNW) 17:55:58
BEESAT 28 Mar 17:50:59 17:54:51 25° 299° (WNW) 17:58:42 436.000
NUDT-PHONESAT 28 Mar 17:52:10 17:55:02 21° 65° (ENE) 17:57:53 437.300
XW-2D 28 Mar 18:00:24 18:03:47 31° 68° (ENE) 18:07:10 145.860 - 145.880
KAITUO 1B 28 Mar 18:02:04 18:05:14 26° 66° (ENE) 18:08:23 145.475/437.950
SO-50 28 Mar 18:02:15 18:05:31 19° 336° (NNW) 18:08:46 436.795
XW-2B 28 Mar 18:06:18 18:09:46 35° 69° (ENE) 18:13:14 145.730 - 145.750
ITUPSAT 1 28 Mar 18:09:11 18:12:30 19° 302° (WNW) 18:15:50 437.325
XW-2C 28 Mar 18:16:24 18:20:01 45° 71° (ENE) 18:23:40 145.795 - 145.815
YUBILEINY 28 Mar 18:34:12 18:42:33 46° 69° (ENE) 18:50:50 435.215
CUBESAT XI-V 28 Mar 18:45:22 18:49:59 67° 288° (WNW) 18:54:38 437.345
KKS-1 28 Mar 18:48:17 18:52:39 51° 290° (WNW) 18:56:58 437.445
M-CUBED/EXP-1 PRIME 28 Mar 18:52:53 18:54:58 13° 93° (E) 18:57:03 437.505
O/OREOS (USA 219) 28 Mar 18:53:08 18:57:11 31° 308° (NW) 19:01:17 437.305
DOVE 4 28 Mar 18:56:40 19:01:24 58° 261° (W) 19:06:27 437.250
XW-2A 28 Mar 19:00:32 19:03:13 21° 66° (ENE) 19:05:54 145.665 - 145.685
PCSat 28 Mar 19:02:25 19:07:52 76° 238° (WSW) 19:13:17 145.827
XW-2F 28 Mar 19:06:39 19:10:20 50° 260° (W) 19:14:02 145.980 - 146.000
LilacSat-2 28 Mar 19:12:27 19:16:05 41° 262° (W) 19:19:43 437.200
HO-68 28 Mar 19:13:00 19:19:50 52° 63° (ENE) 19:26:42 435.675
CUTE-I 28 Mar 19:13:56 19:19:13 57° 259° (W) 19:24:32 437.470
SEEDS 28 Mar 19:15:20 19:18:27 21° 63° (ENE) 19:21:35 437.485
STARS 28 Mar 19:17:49 19:22:10 54° 290° (WNW) 19:26:28 437.465
RS-15 28 Mar 19:21:46 19:33:30 44° 19° (NNE) 19:44:57 29.354- 29.394
NUDT-PHONESAT 28 Mar 19:25:17 19:28:46 37° 262° (W) 19:32:16 437.300
CUTE 1.7 + AOD 2 28 Mar 19:25:52 19:29:44 37° 68° (ENE) 19:33:36 437.475
ZACube-1 28 Mar 19:32:57 19:34:09 11° 55° (NE) 19:35:21 437.345
CUBEBUG 2 28 Mar 19:33:07 19:37:02 26° 64° (ENE) 19:40:53 437.445
XW-2D 28 Mar 19:34:52 19:38:02 24° 266° (W) 19:41:10 145.860 - 145.880
KAITUO 1B 28 Mar 19:35:55 19:39:12 28° 265° (W) 19:42:29 145.475/437.950
XW-2B 28 Mar 19:41:03 19:44:03 22° 267° (W) 19:47:04 145.730 - 145.750
SO-50 28 Mar 19:45:51 19:47:44 12° 1° (N) 19:49:37 436.795
XW-2C 28 Mar 19:51:54 19:54:28 17° 269° (W) 19:57:02 145.795 - 145.815
AO-73 28 Mar 19:58:02 20:00:52 17° 60° (ENE) 20:03:40 145.935
AO-85 28 Mar 20:23:18 20:25:32 14° 112° (ESE) 20:27:42 145.980
CUBESAT XI-V 28 Mar 20:25:09 20:26:31 11° 307° (NW) 20:27:53 437.345
M-CUBED/EXP-1 PRIME 28 Mar 20:25:20 20:30:00 86° 110° (ESE) 20:34:41 437.505
AAUSAT CUBESAT 2 28 Mar 20:26:53 20:30:52 52° 72° (ENE) 20:34:54 437.432
UWE-3 28 Mar 20:29:56 20:34:27 52° 71° (ENE) 20:38:53 435.000/436.395/437.385
YUBILEINY 28 Mar 20:31:13 20:39:26 49° 272° (W) 20:47:39 435.215
XW-2A 28 Mar 20:32:45 20:35:51 30° 263° (W) 20:38:57 145.665 - 145.685
STRAND 1 28 Mar 20:34:45 20:39:39 43° 98° (E) 20:44:29 437.568
PCSat 28 Mar 20:47:49 20:50:21 13° 257° (WSW) 20:52:52 145.827
